BREEZE-M DEB, 38579

Orbit data source: Space-Track

BREEZE-M DEB, 38579 is space debris in HEO originally from a launch on Fri, 14 Mar 2008 UTC launched from the Tyuratam Missile And Space Complex (TTMTR). Debris objects in space refer to the collection of defunct objects orbiting the Earth. Examples of debris include non-operational satellites, rocket bodies, and fragments generated from explosions, collisions, or faulty payload assembly.

Loading next visibility...
Identifier
38579, 2008-011AA
Orbit
HEO
Country
Flag of CISCIS
Related business
Manufacturer
Unknown
Mission
Spacecraft
Bus & Motor
Unknown
Mass
Unknown
Launch date (UTC)
2008-03-14 (18 years ago)
Launch vehicle
Unknown
Launch site
Tyuratam Missile And Space Complex (TTMTR)
Object type
Payload
Rocket body
Debris
Shape & HBR
Unknown shape, 0.3 m
Radar Cross Section
Medium (>0.1 m² and <1 m²)

Expand to show TLE details & history
Last TLE update: 3 weeks ago

TLE from 3 weeks ago
0 BREEZE-M DEB
1 38579U 08011AA  26152.94582892 -.00000052  00000-0  00000-0 0  9993
2 38579  48.6762  88.2524 6298039 167.4493 221.9278  2.99278746164812
Epoch: 2026-06-01T22:41Z
TLE epoch observation values (Epoch: 2026-06-01T22:41:59.618Z)
Latitude
0.00005°
Longitude
-142.6861°
Altitude
25,480.179 km
Speed
2.33 km/s
True Right ascension
05h 52m 57s
True Declination
0° 00' 00"
Sunlit
Object was in daylight at epoch
Visualization orbit readout
Latitude
Unknown
Longitude
Unknown
Altitude
Unknown
Speed
Unknown
Apparent Right ascension
Unknown
Apparent Declination
Unknown
Sunlit
N/A
Visualization observer readout
Local Sidereal Time
12:28:26
Azimuth
Unknown
Elevation
Unknown
Doppler factor
Unknown
Orbital elements
Apogee altitude
26,773.278 km
Perigee altitude
1,151.925 km
Semi-major axis
20,340.739 km
Eccentricity
0.6298
Inclination
48.6762°
RAAN
88.2524°
Arg. of periapsis
167.4493°
True anomaly
192.5926°
Mean anomaly
221.9278°
Eccentric anomaly
206.06969°
Mean motion
0.74816 °/min
Orbital period
481.18 mins
BSTAR
0
Loading maneuver chart data...
Computing Atmospheric mass density...
Loading historical data...
Loading historical data...
Loading historical data...
Loading historical data...
Loading historical data...
Loading historical data...
Loading historical data...

Documentation

Showing up to 5 results
|